Time,TemperatureF,DewpointF,PressureIn,WindDirection,WindDirectionDegrees,WindSpeedMPH,WindSpeedGustMPH,Humidity,HourlyPrecipIn,Conditions,Clouds,dailyrainin,SoftwareType,DateUTC
2013-04-12 00:09:00,70.8,65.0,29.81,South,181,1.0,3.0,82,0.00,,,0.00,weatherlink.com 1.10,2013-04-12 04:09:00,
2013-04-12 00:24:00,70.8,65.0,29.81,SSE,153,0.0,5.0,83,0.00,,,0.00,weatherlink.com 1.10,2013-04-12 04:24:00,
2013-04-12 00:39:00,70.7,65.0,29.81,WSW,245,1.0,5.0,83,0.00,,,0.00,weatherlink.com 1.10,2013-04-12 04:39:00,
2013-04-12 00:54:00,70.5,66.0,29.80,East,91,1.0,3.0,84,0.00,,,0.00,weatherlink.com 1.10,2013-04-12 04:54:00,
2013-04-12 01:09:00,70.5,66.0,29.80,SE,143,1.0,7.0,84,0.00,,,0.00,weatherlink.com 1.10,2013-04-12 05:09:00,
2013-04-12 01:24:00,70.5,66.0,29.79,ESE,121,2.0,4.0,84,0.00,,,0.00,weatherlink.com 1.10,2013-04-12 05:24:00,
2013-04-12 01:39:00,70.5,66.0,29.79,SE,144,1.0,5.0,84,0.00,,,0.00,weatherlink.com 1.10,2013-04-12 05:39:00,
2013-04-12 01:54:00,70.5,66.0,29.78,SW,215,2.0,10.0,84,0.00,,,0.00,weatherlink.com 1.10,2013-04-12 05:54:00,
2013-04-12 02:09:00,70.4,65.0,29.78,ESE,105,2.0,5.0,84,0.00,,,0.00,weatherlink.com 1.10,2013-04-12 06:09:00,
2013-04-12 02:24:00,70.4,65.0,29.77,ESE,115,1.0,7.0,84,0.00,,,0.00,weatherlink.com 1.10,2013-04-12 06:24:00,
2013-04-12 02:39:00,70.3,65.0,29.76,SE,131,1.0,4.0,84,0.00,,,0.00,weatherlink.com 1.10,2013-04-12 06:39:00,
2013-04-12 02:55:00,70.3,65.0,29.75,ESE,123,0.0,7.0,84,0.00,,,0.00,weatherlink.com 1.10,2013-04-12 06:55:00,
2013-04-12 03:10:00,70.4,65.0,29.74,SSE,150,1.0,4.0,84,0.00,,,0.00,weatherlink.com 1.10,2013-04-12 07:10:00,
2013-04-12 03:25:00,70.3,65.0,29.74,SE,131,2.0,5.0,84,0.00,,,0.00,weatherlink.com 1.10,2013-04-12 07:25:00,
2013-04-12 03:40:00,70.4,65.0,29.73,ESE,118,0.0,5.0,83,0.00,,,0.00,weatherlink.com 1.10,2013-04-12 07:40:00,
2013-04-12 03:55:00,70.4,65.0,29.73,SSE,155,2.0,8.0,83,0.00,,,0.00,weatherlink.com 1.10,2013-04-12 07:55:00,
2013-04-12 04:10:00,70.4,65.0,29.73,SE,138,2.0,5.0,83,0.00,,,0.00,weatherlink.com 1.10,2013-04-12 08:10:00,
2013-04-12 04:25:00,70.5,65.0,29.72,WNW,297,1.0,5.0,83,0.00,,,0.00,weatherlink.com 1.10,2013-04-12 08:25:00,
2013-04-12 04:40:00,70.2,65.0,29.72,SSE,162,1.0,5.0,84,0.00,,,0.00,weatherlink.com 1.10,2013-04-12 08:40:00,
2013-04-12 04:55:00,69.0,66.0,29.74,SSE,148,0.0,7.0,89,0.09,,,0.09,weatherlink.com 1.10,2013-04-12 08:55:00,
2013-04-12 05:10:00,67.7,66.0,29.73,SE,136,1.0,4.0,93,0.13,,,0.13,weatherlink.com 1.10,2013-04-12 09:10:00,
2013-04-12 05:25:00,67.3,66.0,29.71,SSE,155,0.0,4.0,94,0.15,,,0.15,weatherlink.com 1.10,2013-04-12 09:25:00,
2013-04-12 05:40:00,67.1,66.0,29.73,SE,141,0.0,2.0,95,0.16,,,0.16,weatherlink.com 1.10,2013-04-12 09:40:00,
2013-04-12 05:55:00,66.9,66.0,29.71,SSE,160,1.0,2.0,95,0.08,,,0.17,weatherlink.com 1.10,2013-04-12 09:55:00,
2013-04-12 06:10:00,66.9,66.0,29.70,SSW,212,1.0,4.0,95,0.05,,,0.18,weatherlink.com 1.10,2013-04-12 10:10:00,
2013-04-12 06:25:00,66.8,65.0,29.71,SSE,168,1.0,5.0,95,0.04,,,0.19,weatherlink.com 1.10,2013-04-12 10:25:00,
2013-04-12 06:40:00,66.8,65.0,29.72,North,359,0.0,4.0,95,0.03,,,0.19,weatherlink.com 1.10,2013-04-12 10:40:00,
2013-04-12 06:55:00,66.6,65.0,29.73,SSE,154,0.0,2.0,95,0.04,,,0.21,weatherlink.com 1.10,2013-04-12 10:55:00,
2013-04-12 07:10:00,66.6,66.0,29.73,SE,142,1.0,5.0,96,0.03,,,0.21,weatherlink.com 1.10,2013-04-12 11:10:00,
2013-04-12 07:25:00,66.4,65.0,29.72,SSE,150,1.0,3.0,96,0.02,,,0.21,weatherlink.com 1.10,2013-04-12 11:25:00,
2013-04-12 07:40:00,66.3,65.0,29.73,SE,141,0.0,3.0,96,0.02,,,0.21,weatherlink.com 1.10,2013-04-12 11:40:00,
2013-04-12 07:55:00,66.2,65.0,29.72,SSE,150,4.0,4.0,96,0.00,,,0.21,weatherlink.com 1.10,2013-04-12 11:55:00,
2013-04-12 08:10:00,66.2,65.0,29.72,South,172,0.0,4.0,96,0.00,,,0.21,weatherlink.com 1.10,2013-04-12 12:10:00,
2013-04-12 08:25:00,66.4,65.0,29.72,South,179,2.0,3.0,96,0.00,,,0.21,weatherlink.com 1.10,2013-04-12 12:25:00,
2013-04-12 08:40:00,66.7,66.0,29.72,WSW,253,2.0,4.0,96,0.00,,,0.21,weatherlink.com 1.10,2013-04-12 12:40:00,
2013-04-12 08:55:00,67.2,66.0,29.72,SE,131,2.0,3.0,96,0.00,,,0.21,weatherlink.com 1.10,2013-04-12 12:55:00,
2013-04-12 09:10:00,67.7,66.0,29.72,ESE,116,1.0,4.0,95,0.00,,,0.21,weatherlink.com 1.10,2013-04-12 13:10:00,
2013-04-12 09:25:00,68.4,67.0,29.72,SSE,150,2.0,6.0,95,0.00,,,0.21,weatherlink.com 1.10,2013-04-12 13:25:00,
2013-04-12 09:40:00,69.1,67.0,29.71,WSW,253,2.0,3.0,94,0.00,,,0.21,weatherlink.com 1.10,2013-04-12 13:40:00,
2013-04-12 09:55:00,69.1,67.0,29.72,SSE,152,0.0,3.0,94,0.01,,,0.22,weatherlink.com 1.10,2013-04-12 13:55:00,
2013-04-12 10:10:00,69.3,68.0,29.72,South,191,0.0,1.0,95,0.01,,,0.22,weatherlink.com 1.10,2013-04-12 14:10:00,
2013-04-12 10:25:00,69.4,68.0,29.72,SSW,198,0.0,3.0,94,0.01,,,0.22,weatherlink.com 1.10,2013-04-12 14:25:00,
2013-04-12 10:40:00,71.2,69.0,29.71,WSW,249,1.0,3.0,91,0.01,,,0.22,weatherlink.com 1.10,2013-04-12 14:40:00,
2013-04-12 10:55:00,73.3,69.0,29.71,SSE,162,0.0,3.0,87,0.00,,,0.22,weatherlink.com 1.10,2013-04-12 14:55:00,
2013-04-12 11:10:00,73.9,68.0,29.71,WSW,241,0.0,5.0,82,0.00,,,0.22,weatherlink.com 1.10,2013-04-12 15:10:00,
2013-04-12 11:25:00,74.8,69.0,29.71,SW,217,2.0,6.0,81,0.00,,,0.22,weatherlink.com 1.10,2013-04-12 15:25:00,
2013-04-12 11:40:00,74.8,68.0,29.70,SSE,153,1.0,4.0,80,0.00,,,0.22,weatherlink.com 1.10,2013-04-12 15:40:00,
2013-04-12 11:55:00,76.6,69.0,29.70,West,276,1.0,5.0,78,0.00,,,0.22,weatherlink.com 1.10,2013-04-12 15:55:00,
2013-04-12 12:10:00,77.0,68.0,29.70,NNW,330,2.0,7.0,73,0.00,,,0.22,weatherlink.com 1.10,2013-04-12 16:10:00,
2013-04-12 12:26:00,74.0,68.0,29.71,West,278,5.0,13.0,80,0.03,,,0.25,weatherlink.com 1.10,2013-04-12 16:26:00,
2013-04-12 12:41:00,68.7,66.0,29.70,SSE,152,0.0,14.0,92,0.31,,,0.53,weatherlink.com 1.10,2013-04-12 16:41:00,
2013-04-12 12:56:00,69.1,68.0,29.70,South,174,0.0,2.0,95,0.31,,,0.53,weatherlink.com 1.10,2013-04-12 16:56:00,
2013-04-12 13:11:00,70.4,69.0,29.69,SSE,148,0.0,2.0,94,0.31,,,0.53,weatherlink.com 1.10,2013-04-12 17:11:00,
2013-04-12 13:26:00,72.2,70.0,29.68,East,84,2.0,3.0,94,0.25,,,0.53,weatherlink.com 1.10,2013-04-12 17:26:00,
2013-04-12 13:41:00,73.5,70.0,29.68,SSE,156,0.0,4.0,89,0.00,,,0.53,weatherlink.com 1.10,2013-04-12 17:41:00,
2013-04-12 13:56:00,74.2,69.0,29.68,WSW,257,1.0,4.0,84,0.00,,,0.53,weatherlink.com 1.10,2013-04-12 17:56:00,
2013-04-12 14:11:00,75.8,70.0,29.67,WNW,288,1.0,2.0,81,0.00,,,0.53,weatherlink.com 1.10,2013-04-12 18:11:00,
2013-04-12 15:41:00,79.0,68.0,29.62,West,276,2.0,9.0,68,0.00,,,0.53,weatherlink.com 1.10,2013-04-12 19:41:00,
2013-04-12 16:11:00,80.7,63.0,29.61,SSW,212,2.0,10.0,56,0.00,,,0.53,weatherlink.com 1.10,2013-04-12 20:11:00,
2013-04-12 16:26:00,80.5,62.0,29.61,WSW,243,1.0,6.0,54,0.00,,,0.53,weatherlink.com 1.10,2013-04-12 20:26:00,
2013-04-12 16:41:00,81.6,63.0,29.61,WSW,246,3.0,12.0,54,0.00,,,0.53,weatherlink.com 1.10,2013-04-12 20:41:00,
2013-04-12 16:56:00,81.8,61.0,29.61,WNW,285,2.0,5.0,50,0.00,,,0.53,weatherlink.com 1.10,2013-04-12 20:56:00,
2013-04-12 17:11:00,81.3,61.0,29.61,ENE,61,1.0,9.0,50,0.00,,,0.53,weatherlink.com 1.10,2013-04-12 21:11:00,
2013-04-12 17:26:00,81.0,61.0,29.61,SE,133,1.0,10.0,51,0.00,,,0.53,weatherlink.com 1.10,2013-04-12 21:26:00,
2013-04-12 17:41:00,80.7,59.0,29.61,NNW,333,4.0,11.0,47,0.00,,,0.53,weatherlink.com 1.10,2013-04-12 21:41:00,
2013-04-12 17:56:00,80.6,60.0,29.61,East,87,1.0,6.0,50,0.00,,,0.53,weatherlink.com 1.10,2013-04-12 21:56:00,
2013-04-12 18:11:00,80.1,59.0,29.61,WNW,284,1.0,6.0,48,0.00,,,0.53,weatherlink.com 1.10,2013-04-12 22:11:00,
2013-04-12 18:41:00,79.2,59.0,29.62,WSW,257,2.0,5.0,50,0.00,,,0.53,weatherlink.com 1.10,2013-04-12 22:41:00,
2013-04-12 18:56:00,78.8,60.0,29.62,SE,136,0.0,3.0,52,0.00,,,0.53,weatherlink.com 1.10,2013-04-12 22:56:00,
2013-04-12 19:11:00,77.3,60.0,29.63,ESE,108,0.0,1.0,56,0.00,,,0.53,weatherlink.com 1.10,2013-04-12 23:11:00,
2013-04-12 19:26:00,75.7,60.0,29.63,WSW,256,0.0,2.0,58,0.00,,,0.53,weatherlink.com 1.10,2013-04-12 23:26:00,
2013-04-12 19:41:00,74.6,59.0,29.64,NE,40,0.0,2.0,58,0.00,,,0.53,weatherlink.com 1.10,2013-04-12 23:41:00,
2013-04-12 19:56:00,73.5,58.0,29.64,SE,124,0.0,1.0,58,0.00,,,0.53,weatherlink.com 1.10,2013-04-12 23:56:00,
2013-04-12 20:11:00,72.7,56.0,29.65,SSE,155,0.0,1.0,56,0.00,,,0.53,weatherlink.com 1.10,2013-04-13 00:11:00,
2013-04-12 20:26:00,72.1,56.0,29.66,West,276,0.0,1.0,57,0.00,,,0.53,weatherlink.com 1.10,2013-04-13 00:26:00,
2013-04-12 20:41:00,70.5,56.0,29.66,West,277,0.0,1.0,60,0.00,,,0.53,weatherlink.com 1.10,2013-04-13 00:41:00,
2013-04-12 20:56:00,69.8,55.0,29.67,NW,309,0.0,1.0,60,0.00,,,0.53,weatherlink.com 1.10,2013-04-13 00:56:00,
2013-04-12 21:11:00,69.5,54.0,29.68,NNW,341,2.0,2.0,59,0.00,,,0.53,weatherlink.com 1.10,2013-04-13 01:11:00,
2013-04-12 21:26:00,70.5,52.0,29.69,West,275,1.0,4.0,53,0.00,,,0.53,weatherlink.com 1.10,2013-04-13 01:26:00,
2013-04-12 21:41:00,71.3,52.0,29.70,NNW,328,0.0,5.0,50,0.00,,,0.53,weatherlink.com 1.10,2013-04-13 01:41:00,
2013-04-12 21:56:00,70.5,51.0,29.70,NW,311,0.0,1.0,50,0.00,,,0.53,weatherlink.com 1.10,2013-04-13 01:56:00,
2013-04-12 22:11:00,69.0,51.0,29.71,West,277,0.0,1.0,53,0.00,,,0.53,weatherlink.com 1.10,2013-04-13 02:11:00,
2013-04-12 22:26:00,67.8,51.0,29.72,West,278,0.0,0.0,56,0.00,,,0.53,weatherlink.com 1.10,2013-04-13 02:26:00,
2013-04-12 22:41:00,65.7,52.0,29.72,West,278,0.0,0.0,61,0.00,,,0.53,weatherlink.com 1.10,2013-04-13 02:41:00,
2013-04-12 22:56:00,65.9,52.0,29.73,NNW,333,1.0,6.0,61,0.00,,,0.53,weatherlink.com 1.10,2013-04-13 02:56:00,
2013-04-12 23:11:00,65.1,50.0,29.74,NW,325,1.0,3.0,59,0.00,,,0.53,weatherlink.com 1.10,2013-04-13 03:11:00,
2013-04-12 23:26:00,65.4,49.0,29.75,NW,324,1.0,3.0,55,0.00,,,0.53,weatherlink.com 1.10,2013-04-13 03:26:00,
2013-04-12 23:42:00,64.9,48.0,29.76,NW,311,0.0,2.0,55,0.00,,,0.53,weatherlink.com 1.10,2013-04-13 03:42:00,
2013-04-12 23:57:00,63.7,47.0,29.76,NNW,329,1.0,3.0,54,0.00,,,0.53,weatherlink.com 1.10,2013-04-13 03:57:00,